Location: Brede
(50.9167°N, 0.6000°E)
Time: 09:59:10
(UTC+00:00)

A-11 Canister half - Pass Details

Date: 02 December 2020
Orbit: 1524 x 1684 km, 47.3° (Epoch: 20 January)

Event Time Altitude Azimuth Distance (km) Brightness Sun altitude
Exits shadow 03:46:24 12° 185° (S) 3,739 10.9 -35.8°
Maximum altitude 03:53:37 28° 135° (SE) 2,768 10.5 -34.7°
Drops below altitude 10° 04:01:37 10° 82° (E) 3,919 12.0 -33.4°
Sets 04:05:18 0° 72° (ENE) 4,890 12.7 -32.8°
